Location: Newark
(50.4348°N, 30.5552°E)
Time: 00:29:24
(UTC+00:00)

Vanguard 3 - Pass Details

Date: 24 January 2020
Orbit: 508 x 3263 km, 33.3° (Epoch: 23 February)

Event Time Altitude Azimuth Distance (km) Brightness Sun altitude
Rises 17:13:03 0° 245° (WSW) 7,218 13.0 -24.7°
Reaches altitude 10° 17:18:23 10° 239° (WSW) 6,186 12.4 -25.5°
Maximum altitude 17:35:22 41° 179° (S) 3,598 10.3 -28.2°
Enters shadow 17:41:43 30° 138° (SE) 3,682 10.0 -29.2°
